Flag for Argentina Weather past 2 weeks in Corrientes, Corrientes, Argentina

Now
61 °F

Clear.


Feels Like: 61 °F
Forecast: 57 / 73 °F
Wind: 2 mph from East

Location: Resistencia Aero.

Current Time: Jun 2, 2015 at 6:48:51 AM

Latest Report: Jun 2, 2015 at 6:00 AM


Visibility: 10 mi

Pressure: 30.04 "Hg

Humidity: 94%

Dew point: 59 °F

Location of CorrientesLocation

Historic Weather in Corrientes — Graph

°F

Corrientes temperature yesterday

Maximum temperature yesterday: 72 °F (at 1:00 PM)
Minimum temperature yesterday: 48 °F (at 4:00 AM)
Average temperature yesterday: 59 °F

Past Weeks' High & Low Weather Summary

 TemperatureHumidityPressure
High84 °F (May 18, 3:00 PM)100% (May 18, 10:00 PM)30.18 "Hg (May 18, 10:00 PM)
Low48 °F (Jun 1, 4:00 AM)50% (May 31, 2:00 PM)29.71 "Hg (May 23, 5:00 AM)
Average67 °F86%30.00 "Hg
* Reported May 18 5:00 AM — Jun 2 5:00 AM, Corrientes, Weather by CustomWeather, © 2015

Note: Actual official high and low records may vary slightly from our data, if they occured in-between our weather recording intervals... More about our weather records

Advertising

Corrientes weather history for previous 24 hours

 ConditionsComfort  
Time TempWeatherWind HumidityBarometerVisibility
5:00 AM
Tue, Jun 2
61 °FClear.2 mph94%30.04 "Hg10 mi
4:00 AM61 °FClear.2 mph88%30.04 "Hg10 mi
3:00 AM57 °FClear.2 mph100%30.07 "Hg4 mi
2:00 AM59 °FClear.2 mph94%30.07 "Hg4 mi
1:00 AM55 °FFog.2 mph94%30.04 "Hg1 mi
12:00 AM54 °FFog.2 mph94%30.04 "Hg1 mi
11:00 PM
Mon, Jun 1
57 °FFog.2 mph94%30.07 "Hg3 mi
10:00 PM55 °FClear.No wind100%30.07 "Hg4 mi
9:00 PM61 °FClear.1 mph88%30.04 "Hg5 mi
8:00 PM63 °FClear.2 mph83%30.04 "Hg5 mi
7:00 PM63 °FClear.2 mph83%30.04 "Hg5 mi
6:00 PM68 °FPassing clouds.1 mph69%30.04 "HgN/A
5:00 PM72 °FPassing clouds.6 mph57%30.04 "HgN/A
4:00 PM72 °FPassing clouds.7 mph57%30.07 "HgN/A
2:00 PM68 °FPassing clouds.3 mph64%30.09 "HgN/A
1:00 PM72 °FPassing clouds.3 mph53%30.12 "HgN/A
12:00 PM70 °FPassing clouds.6 mph69%30.15 "HgN/A
11:00 AM66 °FSunny.6 mph68%30.18 "Hg10 mi
10:00 AM64 °FSunny.3 mph78%30.18 "Hg10 mi
9:00 AM55 °FClear.No wind94%30.15 "Hg4 mi
8:00 AM48 °FClear.No wind94%30.15 "Hg4 mi
7:00 AM48 °FClear.No wind94%30.15 "Hg5 mi
6:00 AM48 °FClear.No wind94%30.12 "Hg5 mi
Weather by CustomWeather, © 2015

See weather overviewHow to use our weather pages